Location: Mason Neck State Park
(38.6428°N, 77.1981°W)
Time: 02:28:34
(UTC-04:00)

Cosmos 2278 Rocket - Visible Passes

Search period start: 27 August 2016 00:00
Search period end: 06 September 2016 00:00
Orbit: 840 x 846 km, 71.0° (Epoch: 26 August)

Date Brightness Start Highest point End Pass type
(mag) Time Alt. Az. Time Alt. Az. Time Alt. Az.
27 Aug 4.4 01:07:36 10° NNW 01:09:23 20° N 01:09:23 20° N visible
28 Aug 4.4 00:53:06 10° NNW 00:54:50 20° N 00:54:50 20° N visible
29 Aug 4.4 00:38:34 10° NNW 00:40:20 20° N 00:40:20 20° N visible
30 Aug 4.4 00:24:04 10° NNW 00:25:52 20° N 00:25:52 20° N visible
31 Aug 4.4 00:09:33 10° NNW 00:11:26 21° N 00:11:26 21° N visible
31 Aug 4.3 23:55:03 10° N 23:57:01 21° N 23:57:01 21° N visible
01 Sep 4.3 23:40:33 10° N 23:42:38 22° N 23:42:38 22° N visible
02 Sep 4.2 23:26:02 10° N 23:28:17 23° N 23:28:17 23° N visible
03 Sep 4.1 23:11:32 10° N 23:13:57 24° N 23:13:57 24° N visible
04 Sep 4.0 22:57:02 10° N 22:59:39 25° N 22:59:39 25° N visible
05 Sep 5.0 00:41:28 10° NW 00:41:29 10° NW 00:41:29 10° NW visible
05 Sep 3.9 22:42:33 10° N 22:45:22 26° NNE 22:45:22 26° NNE visible
